TimeEST,TemperatureF,Dew PointF,Humidity,Sea Level PressureIn,VisibilityMPH,Wind Direction,Wind SpeedMPH,Gust SpeedMPH,PrecipitationIn,Events,Conditions,WindDirDegrees,DateUTC
12:53 AM,50.0,48.0,93,30.05,0.5,SW,6.9,-,N/A,,Mist,220,2013-01-14 05:53:00
1:53 AM,50.0,48.9,96,30.06,0.5,Calm,Calm,-,N/A,,Overcast,0,2013-01-14 06:53:00
2:53 AM,48.9,48.0,97,30.04,0.5,SSW,4.6,-,N/A,,Mist,200,2013-01-14 07:53:00
3:53 AM,50.0,48.0,93,30.03,0.5,SW,5.8,-,N/A,Fog,Fog,230,2013-01-14 08:53:00
4:53 AM,48.9,48.0,97,30.02,0.5,SW,5.8,-,0.01,Fog,Fog,220,2013-01-14 09:53:00
5:53 AM,48.9,48.0,97,30.03,0.5,SW,4.6,-,N/A,,Mist,220,2013-01-14 10:53:00
6:53 AM,48.0,46.9,96,30.00,0.5,South,4.6,-,N/A,,Mist,180,2013-01-14 11:53:00
7:16 AM,48.2,46.4,93,29.97,0.2,SSE,9.2,-,N/A,Fog,Fog,160,2013-01-14 12:16:00
7:26 AM,48.2,46.4,93,29.97,0.5,SSE,8.1,-,N/A,Fog,Fog,160,2013-01-14 12:26:00
7:53 AM,48.9,48.0,97,30.04,0.5,West,9.2,-,0.00,Rain,Light Rain,270,2013-01-14 12:53:00
8:53 AM,50.0,48.9,96,30.07,0.5,West,5.8,-,0.00,,Overcast,270,2013-01-14 13:53:00
9:53 AM,52.0,51.1,97,30.06,0.5,West,4.6,-,N/A,Fog,Fog,260,2013-01-14 14:53:00
10:53 AM,55.0,53.1,93,30.06,0.5,West,8.1,-,N/A,,Overcast,260,2013-01-14 15:53:00
11:30 AM,55.4,55.4,100,30.05,0.5,West,9.2,-,0.01,,Scattered Clouds,280,2013-01-14 16:30:00
11:53 AM,57.9,54.0,87,30.05,10.0,WNW,10.4,-,0.01,,Partly Cloudy,300,2013-01-14 16:53:00
12:53 PM,57.9,51.1,78,30.05,10.0,NW,11.5,-,N/A,,Mostly Cloudy,310,2013-01-14 17:53:00
1:53 PM,57.9,51.1,78,30.07,10.0,NW,9.2,-,N/A,,Mostly Cloudy,320,2013-01-14 18:53:00
2:02 PM,57.2,51.8,82,30.08,10.0,NNW,15.0,19.6,N/A,,Mostly Cloudy,330,2013-01-14 19:02:00
2:43 PM,55.4,48.2,77,30.08,10.0,NNW,12.7,-,N/A,,Overcast,340,2013-01-14 19:43:00
2:53 PM,55.0,48.0,77,30.08,10.0,NNW,11.5,-,N/A,,Overcast,340,2013-01-14 19:53:00
3:53 PM,54.0,45.0,72,30.14,10.0,NNW,8.1,-,N/A,,Overcast,340,2013-01-14 20:53:00
4:53 PM,51.1,39.9,66,30.15,10.0,North,6.9,-,N/A,,Overcast,360,2013-01-14 21:53:00
5:53 PM,50.0,37.0,61,30.18,10.0,North,5.8,-,N/A,,Scattered Clouds,360,2013-01-14 22:53:00
6:53 PM,48.0,30.9,52,30.20,10.0,North,9.2,-,N/A,,Mostly Cloudy,350,2013-01-14 23:53:00
7:53 PM,46.9,26.1,44,30.22,10.0,NNW,9.2,-,N/A,,Overcast,340,2013-01-15 00:53:00
8:53 PM,45.0,27.0,49,30.25,10.0,NW,13.8,-,N/A,,Overcast,320,2013-01-15 01:53:00
9:53 PM,44.1,28.0,53,30.25,10.0,NNW,11.5,-,N/A,,Overcast,330,2013-01-15 02:53:00
10:53 PM,41.0,28.0,60,30.26,10.0,NNW,12.7,19.6,0.00,Rain,Light Rain,340,2013-01-15 03:53:00
11:53 PM,37.9,30.9,76,30.28,10.0,NNW,8.1,-,0.03,Rain,Light Rain,340,2013-01-15 04:53:00